Simultaneous Nadir Overpasses (SNOs) Predictions

Prediction of SNOs between METOP-B and NPP Satellite Orbit:

Table of predicted SNOs for the next 14.0 days since TLE Epoch: 5/10/2019
Index Date (METOP-B) Time (METOP-B) Lat,Lon (METOP-B) SZA (METOP-B ) Date (NPP) Time (NPP) Lat,Lon (NPP) SZA (NPP ) Distance(km) Time Diff (sec)
1 05/16/2019 10:48:15 73.41, 11.05 54.33 05/16/2019 10:47:07 73.39, 8.64 54.43 76.87 68
2 05/16/2019 11:38:59 -73.32, 178.18 125.76 05/16/2019 11:37:50 -73.33, 176.09 125.65 66.87 69
3 05/16/2019 12:29:43 73.09, -15.00 54.02 05/16/2019 12:28:31 73.09, -16.08 54.09 34.96 72
4 05/16/2019 13:20:27 -73.00, 152.14 126.07 05/16/2019 13:19:14 -73.03, 151.36 125.99 25.40 73
5 05/16/2019 14:11:10 72.81, -40.92 53.76 05/16/2019 14:09:56 72.84, -40.92 53.80 2.95 74
6 05/16/2019 15:01:52 -72.83, 126.44 126.24 05/16/2019 15:00:40 -72.83, 126.41 126.22 0.91 72
7 05/16/2019 15:52:32 72.79, -66.30 53.72 05/16/2019 15:51:25 72.79, -66.20 53.73 3.48 67
8 05/16/2019 16:43:14 -72.81, 101.06 126.28 05/16/2019 16:42:10 -72.83, 101.03 126.24 3.05 64
9 05/16/2019 17:33:53 72.82, -91.58 53.73 05/16/2019 17:32:55 72.80, -91.58 53.72 3.08 58
10 05/16/2019 18:24:36 -72.79, 75.67 126.31 05/16/2019 18:23:39 -72.79, 75.76 126.30 2.69 57
11 05/16/2019 19:15:15 72.80,-116.96 53.70 05/16/2019 19:14:25 72.80,-116.96 53.71 0.45 50
12 05/16/2019 20:05:57 -72.82, 50.40 126.30 05/16/2019 20:05:09 -72.79, 50.37 126.32 3.19 48
13 05/16/2019 20:56:37 72.78,-142.34 53.67 05/16/2019 20:55:55 72.80,-142.34 53.69 2.19 42
14 05/16/2019 21:47:19 -72.80, 25.01 126.33 05/16/2019 21:46:39 -72.79, 24.99 126.33 0.87 40
15 05/16/2019 22:37:58 72.81,-167.62 53.68 05/16/2019 22:37:25 72.80,-167.72 53.68 3.43 33
16 05/16/2019 23:28:41 -72.78, -0.37 126.37 05/16/2019 23:28:09 -72.80, -0.39 126.34 2.21 32
17 05/17/2019 00:19:20 72.79, 167.00 53.64 05/17/2019 00:18:55 72.81, 166.90 53.67 3.75 25
18 05/17/2019 01:10:03 -72.76, -25.75 126.40 05/17/2019 01:09:38 -72.75, -25.66 126.41 2.95 25
19 05/17/2019 02:00:42 72.77, 141.62 53.61 05/17/2019 02:00:24 72.76, 141.62 53.60 1.22 18
20 05/17/2019 02:51:25 -72.74, -51.13 126.44 05/17/2019 02:51:08 -72.75, -51.04 126.42 3.30 17
21 05/17/2019 03:42:04 72.75, 116.23 53.57 05/17/2019 03:41:54 72.76, 116.24 53.59 1.46 10
22 05/17/2019 04:32:46 -72.77, -76.41 126.42 05/17/2019 04:32:38 -72.76, -76.43 126.43 1.46 8
23 05/17/2019 05:23:25 72.78, 90.96 53.58 05/17/2019 05:23:24 72.77, 90.86 53.58 3.55 1
24 05/17/2019 06:14:08 -72.75,-101.79 126.46 05/17/2019 06:14:08 -72.76,-101.81 126.45 1.40 0
25 05/17/2019 07:04:47 72.76, 65.57 53.55 05/17/2019 07:04:54 72.77, 65.48 53.56 3.32 7
26 05/17/2019 07:55:30 -72.73,-127.17 126.49 05/17/2019 07:55:37 -72.71,-127.08 126.51 3.39 7
27 05/17/2019 08:46:08 72.74, 40.19 53.52 05/17/2019 08:46:22 72.72, 40.20 53.50 1.98 14
28 05/17/2019 09:36:51 -72.71,-152.55 126.53 05/17/2019 09:37:06 -72.71,-152.46 126.53 3.06 15
29 05/17/2019 10:27:30 72.72, 14.81 53.48 05/17/2019 10:27:52 72.73, 14.82 53.48 0.80 22
30 05/17/2019 11:18:12 -72.74,-177.83 126.52 05/17/2019 11:18:36 -72.72,-177.85 126.54 2.21 24
31 05/17/2019 12:08:52 72.70, -10.57 53.45 05/17/2019 12:09:22 72.73, -10.56 53.47 3.37 30
32 05/17/2019 12:59:34 -72.72, 156.79 126.55 05/17/2019 13:00:06 -72.72, 156.77 126.55 0.66 32
33 05/17/2019 13:50:13 72.73, -35.85 53.46 05/17/2019 13:50:52 72.73, -35.94 53.46 3.03 39
34 05/17/2019 14:40:56 -72.70, 131.41 126.58 05/17/2019 14:41:36 -72.72, 131.39 126.56 3.10 40
35 05/17/2019 15:31:35 72.71, -61.23 53.42 05/17/2019 15:32:21 72.68, -61.22 53.39 2.72 46
36 05/17/2019 16:22:18 -72.68, 106.02 126.62 05/17/2019 16:23:05 -72.68, 106.12 126.63 3.01 47
37 05/17/2019 17:12:57 72.69, -86.61 53.39 05/17/2019 17:13:51 72.69, -86.60 53.38 0.51 54
38 05/17/2019 18:03:39 -72.71, 80.75 126.61 05/17/2019 18:04:35 -72.68, 80.73 126.64 3.00 56
39 05/17/2019 18:54:19 72.67,-112.00 53.36 05/17/2019 18:55:21 72.69,-111.98 53.37 2.66 62
40 05/17/2019 19:45:01 -72.69, 55.37 126.64 05/17/2019 19:46:05 -72.68, 55.35 126.65 0.54 64
41 05/17/2019 20:35:40 72.70,-137.27 53.37 05/17/2019 20:36:51 72.69,-137.36 53.35 2.93 71
42 05/17/2019 21:26:23 -72.67, 29.98 126.67 05/17/2019 21:27:35 -72.69, 29.97 126.67 2.29 72
43 05/17/2019 22:17:06 72.47,-163.07 53.15 05/17/2019 22:18:18 72.55,-162.43 53.18 22.77 72
44 05/17/2019 23:07:49 -72.44, 4.19 126.89 05/17/2019 23:09:01 -72.49, 5.00 126.90 27.63 72
45 05/17/2019 23:58:33 72.20, 171.05 52.89 05/17/2019 23:59:42 72.24, 172.80 52.84 59.65 69
46 05/18/2019 00:49:17 -72.12, -21.79 127.20 05/18/2019 00:50:25 -72.18, -19.77 127.24 68.99 68




NCC Satellite Simultaneous Nadir Overpasses (SNOs) Prediction Service
